Alpena, MI

12:34 PM EST on February 08, 2016 (GMT -0500)
Alpena County Regional

Weather History for KAPN - February, 2014

Change the Weather History Date:

Monday, February 17, 2014

  Actual Average Record
Temperature  
Mean Temperature 1 °F 20 °F  
Max Temperature 19 °F 30 °F 57 °F (1981)
Min Temperature -18 °F 11 °F -37 °F (1979)
Degree Days  
Heating Degree Days 64 44  
Month to date heating degree days 970 774  
Since 1 July heating degree days 5948 5256  
Moisture  
Dew Point -1 °F    
Average Humidity 73    
Maximum Humidity 92    
Minimum Humidity 53    
Precipitation  
Precipitation 0.19 in 0.04 in 0.55 in (2008)
Month to date precipitation 0.63 0.74  
Year to date precipitation 2.08 2.40  
Snow  
Snow 1.30 in 0.70 in 4.20 in (1941)
Month to date snowfall 8.1 10.8  
Since 1 July snowfall 50.6 59.4  
Snow Depth 16.00 in    
Sea Level Pressure  
Sea Level Pressure 30.17 in    
Wind  
Wind Speed 8 mph (ESE)    
Max Wind Speed 24 mph    
Max Gust Speed 32 mph    
Visibility 8 miles    
Events Fog , Snow    
T = Trace of Precipitation, MM = Missing Value Source: NWS Daily Summary

Daily Weather History Graph

Daily Weather History Graph

Search for Another Location

Airport or City:

Trip Planner

Search our weather history database for the weather conditions in past years. The results will help you decide how hot, cold, wet, or windy it might be!

Date:

Astronomy

Feb. 17, 2014 Rise Set
Actual Time 7:32 AM EST 6:04 PM EST
Civil Twilight 7:02 AM EST 6:35 PM EST
Nautical Twilight 6:27 AM EST 7:09 PM EST
Astronomical Twilight 5:53 AM EST 7:43 PM EST
Moon 9:08 PM EST (2/17) 8:23 AM EST (2/17)
Length of Visible Light 11h 33m
Length of Day
10h 32m
Waning Gibbous, 93% of the Moon is Illuminated
Feb 17
Waning Gibbous
Feb 22
Last Quarter
Mar 1
New
Mar 8
First Quarter
Mar 16
Full

Hourly Weather History & Observations

Time (EST) Temp. Windchill Dew Point Humidity Pressure Visibility Wind Dir Wind Speed Gust Speed Precip Events Conditions
12:54 AM -14.1 °F - -18.9 °F 79% 30.42 in 10.0 mi Calm Calm - N/A   Clear
1:54 AM -16.1 °F - -20.9 °F 79% 30.43 in 10.0 mi Calm Calm - N/A   Clear
2:54 AM -15.0 °F - -20.0 °F 78% 30.44 in 10.0 mi Calm Calm - N/A   Clear
3:54 AM -16.1 °F - -22.0 °F 74% 30.44 in 10.0 mi Calm Calm - N/A   Clear
4:54 AM -13.0 °F - -18.9 °F 75% 30.44 in 10.0 mi Calm Calm - N/A   Clear
5:54 AM -11.0 °F - -16.1 °F 78% 30.44 in 10.0 mi Calm Calm - N/A   Clear
6:54 AM -14.1 °F - -18.0 °F 82% 30.44 in 10.0 mi Calm Calm - N/A   Clear
7:54 AM -15.0 °F - -20.9 °F 75% 30.44 in 10.0 mi Calm Calm - N/A   Clear
8:54 AM -9.9 °F - -13.0 °F 86% 30.42 in 9.0 mi Calm Calm - N/A   Clear
9:54 AM 7.0 °F -6.6 °F 1.0 °F 77% 30.38 in 10.0 mi SSE 9.2 mph - N/A   Clear
10:54 AM 12.9 °F -0.2 °F 3.0 °F 65% 30.34 in 10.0 mi SE 10.4 mph 19.6 mph N/A   Clear
11:54 AM 15.1 °F -0.1 °F 3.9 °F 61% 30.29 in 10.0 mi SE 15.0 mph - N/A   Clear
12:54 PM 15.1 °F -0.6 °F 3.0 °F 59% 30.25 in 10.0 mi SE 16.1 mph 24.2 mph N/A   Clear
1:54 PM 15.1 °F -0.6 °F 3.0 °F 59% 30.21 in 10.0 mi ESE 16.1 mph - N/A   Clear
2:54 PM 15.1 °F -0.1 °F 1.9 °F 56% 30.19 in 10.0 mi ESE 15.0 mph - N/A   Partly Cloudy
3:54 PM 15.1 °F -0.1 °F 3.0 °F 59% 30.15 in 10.0 mi ESE 15.0 mph 24.2 mph N/A   Mostly Cloudy
4:54 PM 14.0 °F -3.4 °F 6.1 °F 71% 30.09 in 8.0 mi ESE 19.6 mph 29.9 mph N/A   Overcast
5:54 PM 15.1 °F -1.6 °F 7.0 °F 70% 30.05 in 10.0 mi SE 18.4 mph 24.2 mph N/A   Overcast
6:54 PM 16.0 °F 2.3 °F 7.0 °F 68% 30.00 in 10.0 mi ESE 12.7 mph 20.7 mph N/A   Overcast
7:54 PM 17.1 °F 2.5 °F 8.1 °F 68% 29.93 in 10.0 mi ESE 15.0 mph 24.2 mph N/A   Overcast
8:33 PM 17.1 °F 2.0 °F 10.0 °F 74% 29.84 in 1.8 mi ESE 16.1 mph 25.3 mph 0.00 in Snow Light Snow
8:54 PM 17.1 °F 1.5 °F 12.9 °F 84% 29.89 in 1.2 mi SE 17.3 mph 26.5 mph 0.01 in Snow Light Snow
9:09 PM 17.1 °F 3.0 °F 14.0 °F 88% 29.84 in 0.8 mi ESE 13.8 mph 24.2 mph 0.01 in Snow Light Snow
9:54 PM 18.0 °F 7.7 °F 15.1 °F 88% 29.87 in 0.8 mi East 8.1 mph - 0.05 in Snow Light Snow
10:09 PM 18.0 °F 6.9 °F 15.1 °F 88% 29.81 in 1.0 mi East 9.2 mph - 0.02 in Snow Light Snow
10:29 PM 18.0 °F 6.1 °F 16.0 °F 92% 29.79 in 1.2 mi East 10.4 mph - 0.02 in Snow Light Snow
10:41 PM 18.0 °F 5.4 °F 16.0 °F 92% 29.78 in 0.8 mi East 11.5 mph - 0.03 in Snow Light Snow
10:54 PM 19.0 °F 9.0 °F 16.0 °F 88% 29.81 in 0.5 mi East 8.1 mph - 0.05 in Fog , Snow Snow
11:54 PM 19.0 °F 11.1 °F 17.1 °F 92% 29.78 in 0.5 mi East 5.8 mph - 0.07 in Fog , Snow Snow